Forside
METAR-TAF:

METAR-TAF

Lufthavne :

Lansing Municipal Airport

Lansing, Illinois, USA

Breddekreds: 41-32-24N, længdekreds: 087-31-56W, højde: 188 m

Aktuelle vejr

Denne rapport blev lavet for 24 minutter siden, kl. 19:55 UTC
Vind 13 kt fra sydvest med vindstød på up til 21 kt
Temperatur 9°C
Fugtighed 46%
Tryk 1022 hPa
Sigt: 16.1 km
skyfri

METAR: KIGQ 221955Z AUTO 22013G21KT 10SM CLR 09/M02 A3017 RMK AO2 T00881021

Tid: 14:19 (20:19 UTC)


TAF: fraværende

Vejrobservationer og prognoser fra mere end 4000 lufthavne (METAR og TAF).

De gule og røde prikker repræsenterer de meteorologiske stationer.

Flyt musen over at se navnet på stationen.

Så klik over at se vejr observationer og prognoser.

At skifte det kort: Klik på de grønne knapper med et sort kors for at zoome ind; på den grønne knap med en bindestreg for at zoome ud; eller på de grønne pile for tilstødende kort.


METAR-TAF: